Location: Newark
(46.7000°N, 60.6000°W)
Time: 21:02:57
(UTC+00:00)

Envisat - Pass Details

Date: 29 September 2020
Orbit: 764 x 766 km, 98.1° (Epoch: 20 October)

Event Time Altitude Azimuth Distance (km) Brightness Sun altitude
Rises 22:16:55 0° 202° (SSW) 3,220 6.5 -6.3°
Reaches altitude 10° 22:19:41 10° 217° (SW) 2,299 6.0 -6.8°
Maximum altitude 22:23:37 22° 268° (W) 1,613 5.9 -7.4°
Drops below altitude 10° 22:27:34 10° 319° (NW) 2,312 6.2 -8.1°
Sets 22:30:23 0° 335° (NNW) 3,243 6.7 -8.6°
